Flag for Colombia Weather past 2 weeks in Cartagena, Colombia

Now
90 °F

Passing clouds.


Feels Like: 108 °F
Forecast: 79 / 89 °F
Wind: 9 mph from Northwest

Location: Cartagena / Rafael Nunez

Current Time: Oct 23, 2014 at 2:41:38 PM

Latest Report: Oct 23, 2014 at 2:00 PM


Visibility: N/A

Pressure: 29.76 "Hg

Humidity: 75%

Dew point: 81 °F

Location of CartagenaLocation

Historic Weather in Cartagena — Graph

°F

Cartagena temperature yesterday

Maximum temperature yesterday: 90 °F (at 10:00 AM)
Minimum temperature yesterday: 79 °F (at 4:00 AM)
Average temperature yesterday: 85 °F

Past Weeks' High & Low Weather Summary

 TemperatureHumidityPressure
High91 °F (Oct 17, 11:00 AM)100% (Oct 9, 7:00 AM)29.94 "Hg (Oct 9, 7:00 AM)
Low73 °F (Oct 14, 4:00 AM)62% (Oct 10, 9:00 AM)29.74 "Hg (Oct 10, 4:00 PM)
Average82 °F85%29.82 "Hg
* Reported Oct 8 1:00 PM — Oct 23 1:00 PM, Cartagena, Weather by CustomWeather, © 2014

Note: Actual official high and low records may vary slightly from our data, if they occured in-between our weather recording intervals... More about our weather records

Advertising

Cartagena weather history for previous 24 hours

 ConditionsComfort  
Time TempWeatherWind HumidityBarometerVisibility
1:00 PM
Oct 23
90 °FPassing clouds.8 mph75%29.79 "HgN/A
12:00 PM90 °FScattered clouds.6 mph71%29.83 "HgN/A
11:00 AM88 °FScattered clouds.7 mph75%29.84 "HgN/A
10:00 AM90 °FScattered clouds.2 mph75%29.87 "HgN/A
9:00 AM88 °FScattered clouds.3 mph79%29.85 "HgN/A
8:00 AM84 °FScattered clouds.3 mph84%29.83 "Hg6 mi
7:00 AM82 °FSnow. Partly sunny.2 mph94%29.81 "HgN/A
6:00 AM81 °FFog.No wind94%29.81 "Hg3 mi
5:00 AM81 °FPassing clouds.3 mph94%29.79 "Hg4 mi
4:00 AM81 °FPassing clouds.3 mph94%29.78 "Hg4 mi
3:00 AM82 °FPassing clouds.2 mph94%29.78 "Hg6 mi
2:00 AM82 °FPassing clouds.2 mph94%29.79 "HgN/A
1:00 AM82 °FPassing clouds.No wind94%29.81 "HgN/A
12:00 AM84 °FPassing clouds.No wind84%29.83 "HgN/A
11:00 PM
Oct 22
84 °FPassing clouds.2 mph84%29.85 "HgN/A
10:00 PM84 °FPassing clouds.No wind84%29.85 "HgN/A
9:00 PM84 °FPassing clouds.5 mph84%29.84 "HgN/A
8:00 PM84 °FPassing clouds.5 mph84%29.82 "HgN/A
7:00 PM86 °FPassing clouds.5 mph84%29.80 "HgN/A
6:00 PM86 °FPassing clouds.6 mph79%29.77 "HgN/A
5:00 PM86 °FPartly sunny.8 mph79%29.76 "HgN/A
4:00 PM90 °FScattered clouds.10 mph71%29.74 "HgN/A
3:00 PM90 °FScattered clouds.8 mph71%29.75 "HgN/A
2:00 PM90 °FThunderstorms. Passing clouds.6 mph71%29.77 "HgN/A
Weather by CustomWeather, © 2014

See weather overviewHow to use our weather pages